sat.trackr.live / text

‹ back to catalog

STARLINK-5068

NORAD 55423 · 2023-014AJ

PAYLOAD ACTIVE UNKNOWN

§ Identity

Operator
Country
US
Launch date
2023-01-31
Launch site
AFWTR
Launch vehicle
Mass (kg)
RCS (m²)

Purposes: comms

External: N2YO · Heavens-Above · Gunter

§ Orbital elements

Epoch: 2026-09-20T22:00:03.000096Z

Period
95.77 min
Inclination
70.0006°
Eccentricity
0.0004657
Mean motion
15.03635530 rev/d
Perigee alt
552.5 km
Apogee alt
558.9 km
Semi-major
6,933.8 km
B*
6.6937e-3
RAAN
312.2631°
Arg perigee
273.3932°
Mean anomaly
108.0406°
Rev number
566

§ Raw data

STARLINK-50681 55423U 23014AJ  26263.91670139  .00092911  00000+0  66937-2 0  99982 55423  70.0006 312.2631 0004657 273.3932 108.0406 15.03635530  5660

JSON: /api/v1/satellites/55423 · /tle

For live sub-satellite position, see the globe view (requires WebGL).

§ Visibility from observer

Set your observer location to see the next 7 days of passes ≥ 10°. The values pass through the URL so the page stays shareable.

No JS? Fill the form by hand. The geolocation button needs JavaScript.